This is the latest recevied weather packets stored in our database for station/object K1NOT-WX. If no packets are shown the sender has not sent any weather packets the latest 10 day(s).
| Time | Temp. | Humidity | Pressure | Rain* | Wind** | Luminosity | Snow |
|---|---|---|---|---|---|---|---|
| 1777066932 | 16.11° C | 32% | 1009.1 hPa | 0 mm | - | - | - |
| 1777066032 | 15.56° C | 34% | 1009.5 hPa | 0 mm | - | - | - |
| 1777065132 | 15° C | 32% | 1009.5 hPa | 0 mm | - | - | - |
| 1777064232 | 15.56° C | 33% | 1009.8 hPa | 0 mm | - | - | - |
| 1777063332 | 15° C | 34% | 1010.2 hPa | 0 mm | - | - | - |
| 1777062432 | 16.11° C | 43% | 1010.2 hPa | 0 mm | - | - | - |
| 1777061532 | 15.56° C | 38% | 1010.2 hPa | 0 mm | - | - | - |
| 1777060632 | 15° C | 58% | 1010.5 hPa | 0 mm | - | - | - |
| 1777059732 | 15.56° C | 56% | 1010.8 hPa | 0 mm | - | - | - |
| 1777058832 | 15° C | 59% | 1011.2 hPa | 0 mm | - | - | - |
| 1777057933 | 14.44° C | 69% | 1011.2 hPa | 0 mm | - | - | - |
| 1777057033 | 13.33° C | 70% | 1011.2 hPa | 0 mm | - | - | - |
| 1777056133 | 12.78° C | 75% | 1010.8 hPa | 0 mm | - | - | - |
| 1777055233 | 13.33° C | 74% | 1011.2 hPa | 0 mm | - | - | - |
| 1777054333 | 14.44° C | 68% | 1011.5 hPa | 0 mm | - | - | - |
| 1777053433 | 13.89° C | 67% | 1011.5 hPa | 0 mm | - | - | - |
| 1777052533 | 12.78° C | 76% | 1011.5 hPa | 0 mm | - | - | - |
| 1777051633 | 12.78° C | 78% | 1011.5 hPa | 0 mm | - | - | - |
| 1777050733 | 11.67° C | 80% | 1011.8 hPa | 0 mm | - | - | - |
| 1777049833 | 11.11° C | 82% | 1011.8 hPa | 0 mm | - | - | - |
| 1777048933 | 10.56° C | 83% | 1011.8 hPa | 0 mm | - | - | - |
| 1777048033 | 11.11° C | 80% | 1011.8 hPa | 0 mm | - | - | - |
| 1777047133 | 11.67° C | 77% | 1011.8 hPa | 0 mm | - | - | - |
| 1777046233 | 11.67° C | 76% | 1012.5 hPa | 0 mm | - | - | - |
| 1777045333 | 11.67° C | 77% | 1012.5 hPa | 0 mm | - | - | - |
* Rain latest hour (hover to see other rain measurements)
** Current wind speed in m/s (hover to see current wind gust speed)